GW7074 Weather Reports


time (UTC)temp
F
wind
direction
speed
knots
gust
knots
rain 1hr
in
rain 24hr
in
rain mn
in
humidity
%
barometer
mb
20260510072333 74 159 3.5 5.2 0.00 0.00 0.00 97 1010.5
20260510071829 75 207 0.9 1.7 0.00 0.00 0.00 97 1010.5
20260510071326 75 94 1.7 1.7 0.00 0.00 0.00 97 1010.4
20260510070825 75 194 2.6 3.5 0.00 0.00 0.00 96 1010.3
20260510070321 75 188 1.7 3.5 0.00 0.00 0.00 96 1010.5
20260510065816 75 219 0.0 0.9 0.00 0.00 0.00 96 1010.6
20260510065313 75 185 1.7 2.6 0.00 0.00 0.00 95 1010.7
20260510064810 75 163 2.6 2.6 0.00 0.00 0.00 95 1010.6
20260510064308 75 225 2.6 3.5 0.00 0.00 0.00 94 1010.6
20260510063803 75 226 1.7 2.6 0.00 0.00 0.00 94 1010.9
20260510063259 75 213 2.6 2.6 0.00 0.00 0.00 94 1010.9
20260510062756 75 172 2.6 5.2 0.00 0.00 0.00 93 1010.9
20260510062252 75 171 3.5 3.5 0.00 0.00 0.00 93 1010.9
20260510061747 75 171 1.7 2.6 0.00 0.00 0.00 93 1010.8
20260510061245 75 133 3.5 6.1 0.00 0.00 0.00 93 1011.0
20260510060741 75 212 1.7 2.6 0.00 0.00 0.00 93 1011.1
20260510060238 75 222 0.0 0.0 0.00 0.00 0.00 92 1011.1
20260510055734 75 214 1.7 1.7 0.00 0.00 0.00 93 1011.0
20260510055233 75 135 4.3 6.1 0.00 0.00 0.00 93 1011.0
20260510054732 75 152 3.5 5.2 0.00 0.00 0.00 93 1011.2
20260510054229 75 124 2.6 5.2 0.00 0.00 0.00 93 1010.8
20260510053728 75 217 0.9 1.7 0.00 0.00 0.00 93 1011.1
20260510053225 76 177 1.7 2.6 0.00 0.00 0.00 92 1010.9
20260510052720 76 194 1.7 1.7 0.00 0.00 0.00 91 1011.1
20260510052217 76 143 2.6 3.5 0.00 0.00 0.00 90 1011.0
20260510051712 76 162 3.5 5.2 0.00 0.00 0.00 90 1011.1
20260510051209 76 178 3.5 3.5 0.00 0.00 0.00 89 1011.3
20260510050707 76 207 2.6 2.6 0.00 0.00 0.00 88 1011.4
20260510050204 76 133 4.3 6.1 0.00 0.00 0.00 88 1011.5
20260510045700 76 225 0.9 1.7 0.00 0.07 0.07 88 1011.4
20260510045157 76 211 1.7 2.6 0.00 0.07 0.07 88 1011.3
20260510044653 76 207 0.0 0.9 0.00 0.07 0.07 87 1011.6
20260510044151 76 206 1.7 1.7 0.00 0.07 0.07 87 1011.4
20260510043646 76 183 1.7 1.7 0.00 0.07 0.07 87 1011.4
20260510043143 76 160 3.5 3.5 0.00 0.07 0.07 86 1011.5
20260510042641 76 201 1.7 2.6 0.00 0.07 0.07 86 1011.4
20260510042136 76 198 0.9 1.7 0.00 0.07 0.07 85 1011.4
20260510041634 77 197 2.6 2.6 0.00 0.07 0.07 85 1011.3
20260510041131 77 199 1.7 1.7 0.00 0.07 0.07 84 1011.3
20260510040628 77 133 2.6 3.5 0.00 0.07 0.07 84 1011.3
20260510040124 77 212 1.7 2.6 0.00 0.07 0.07 83 1011.1
20260510035620 77 223 1.7 1.7 0.00 0.07 0.07 82 1011.3
20260510035121 77 140 4.3 5.2 0.00 0.07 0.07 81 1011.2
20260510034618 77 172 1.7 5.2 0.00 0.07 0.07 81 1011.2
20260510034115 77 183 2.6 2.6 0.00 0.07 0.07 80 1011.4
20260510033611 77 149 2.6 2.6 0.00 0.07 0.07 79 1011.5
20260510033109 77 170 1.7 2.6 0.00 0.07 0.07 79 1011.4
20260510032605 76 174 2.6 3.5 0.00 0.07 0.07 79 1011.4
20260510032101 76 157 1.7 1.7 0.00 0.07 0.07 80 1011.5
20260510031556 75 196 1.7 1.7 0.00 0.07 0.07 82 1011.2
20260510031052 74 218 0.0 0.0 0.00 0.07 0.07 87 1011.1
20260510030547 73 220 0.9 0.9 0.00 0.07 0.07 89 1010.9
20260510030045 73 186 0.9 0.9 0.00 0.07 0.07 91 1010.8
20260510025542 73 210 0.0 0.0 0.00 0.07 0.07 91 1010.6
20260510025040 72 227 1.7 1.7 0.00 0.07 0.07 93 1010.5
20260510024536 73 244 0.0 0.0 0.00 0.07 0.07 93 1010.4
20260510024032 73 248 0.0 0.0 0.00 0.07 0.07 93 1010.3
20260510023528 73 236 0.0 0.0 0.00 0.07 0.07 93 1010.0
20260510023026 73 213 0.9 0.9 0.00 0.07 0.07 93 1010.0
20260510022525 73 195 0.0 0.9 0.00 0.07 0.07 92 1009.9
20260510022020 73 233 0.0 0.0 0.00 0.07 0.07 92 1009.8
20260510021517 73 230 0.0 0.0 0.00 0.07 0.07 91 1009.8
20260510021014 73 198 0.9 1.7 0.00 0.07 0.07 93 1009.7
20260510020508 74 209 1.7 1.7 0.00 0.07 0.07 92 1009.6
20260510020005 74 222 0.9 1.7 0.00 0.07 0.07 91 1009.4
20260510015500 73 209 0.0 0.9 0.00 0.07 0.07 92 1009.4
20260510014955 73 107 1.7 1.7 0.00 0.07 0.07 95 1009.1
20260510014454 73 222 0.0 0.0 0.00 0.07 0.07 95 1008.8
20260510013950 73 195 1.7 1.7 0.00 0.07 0.07 95 1008.8
20260510013444 73 237 0.0 0.0 0.00 0.07 0.07 95 1008.8
20260510012940 73 239 0.0 0.0 0.00 0.07 0.07 94 1008.2
20260510012435 72 234 0.0 0.0 0.00 0.07 0.07 94 1008.2
20260510011931 72 226 0.0 0.9 0.00 0.07 0.07 94 1008.5
20260510011425 72 239 0.9 0.9 0.00 0.07 0.07 94 1008.4
20260510010922 72 251 0.9 0.9 0.00 0.07 0.07 93 1008.2
20260510010419 72 265 0.0 0.9 0.00 0.07 0.07 93 1008.6
20260510005916 71 239 0.9 0.9 0.00 0.07 0.07 93 1008.6
20260510005412 71 239 0.9 0.9 0.00 0.07 0.07 93 1008.3
20260510004909 71 233 0.9 0.9 0.00 0.07 0.07 92 1008.1
20260510004407 72 229 0.9 0.9 0.12 0.07 0.07 90 1008.2
20260510003904 72 236 0.9 0.9 0.19 0.07 0.07 87 1008.0
20260510003401 72 249 0.0 0.9 0.12 0.05 0.05 86 1008.1
20260510002900 72 235 0.9 0.9 0.12 0.04 0.04 87 1008.9
20260510002358 71 255 0.9 1.7 0.07 0.03 0.03 84 1009.0
20260510001854 72 264 2.6 3.5 0.00 0.02 0.02 82 1008.9
20260510001352 73 355 3.5 5.2 0.00 0.02 0.02 79 1008.7
20260510000848 75 316 3.5 5.2 0.00 0.02 0.02 75 1008.6
20260510000345 75 3 8.7 12.2 0.00 0.02 0.02 70 1008.4
20260509235842 75 316 5.2 7.0 0.00 0.02 0.02 71 1008.2
20260509235338 76 346 7.8 11.3 0.00 0.02 0.02 71 1008.2
20260509234835 79 315 2.6 3.5 0.00 0.02 0.02 85 1008.0
20260509234332 79 328 1.7 1.7 0.00 0.02 0.02 86 1007.9
20260509233830 79 269 0.9 1.7 0.05 0.02 0.02 86 1007.8
20260509233327 79 238 3.5 3.5 0.05 0.02 0.02 86 1007.8
20260509232822 80 351 3.5 3.5 0.12 0.02 0.02 82 1007.8
20260509232320 84 339 2.6 3.5 0.07 0.01 0.01 79 1007.8
20260509231816 87 290 1.7 2.6 0.00 0.00 0.00 69 1008.1
20260509231313 88 233 0.0 0.0 0.00 0.00 0.00 63 1008.0
20260509230812 88 228 0.9 0.9 0.00 0.00 0.00 61 1008.0
20260509230308 87 205 1.7 1.7 0.00 0.00 0.00 60 1007.8
20260509225803 88 223 0.0 0.9 0.00 0.00 0.00 61 1007.8
20260509225300 88 218 0.9 0.9 0.00 0.00 0.00 62 1007.6
20260509224756 88 228 0.0 0.9 0.00 0.00 0.00 62 1007.5
20260509224253 88 223 0.9 0.9 0.00 0.00 0.00 61 1007.6
20260509223749 88 226 0.9 1.7 0.00 0.00 0.00 62 1007.3
20260509223246 89 223 0.0 0.9 0.00 0.00 0.00 61 1007.5
20260509222743 88 218 0.9 0.9 0.00 0.00 0.00 62 1007.3
20260509222239 88 216 0.9 1.7 0.00 0.00 0.00 62 1007.3
20260509221734 89 161 2.6 2.6 0.00 0.00 0.00 62 1007.2
20260509221231 89 224 0.9 0.9 0.00 0.00 0.00 62 1007.3
20260509220727 90 207 2.6 2.6 0.00 0.00 0.00 62 1007.4
20260509220223 90 229 0.0 0.0 0.00 0.00 0.00 61 1007.3
20260509215719 90 241 0.0 0.9 0.00 0.00 0.00 61 1007.3
20260509215215 92 336 1.7 2.6 0.00 0.00 0.00 58 1007.4
20260509214713 95 236 1.7 1.7 0.00 0.00 0.00 52 1007.4
20260509214210 94 240 0.9 1.7 0.00 0.00 0.00 54 1007.3
20260509213707 94 255 0.9 1.7 0.00 0.00 0.00 59 1007.4
20260509213202 92 225 0.0 0.9 0.00 0.00 0.00 58 1007.3
20260509212700 93 245 1.7 1.7 0.00 0.00 0.00 57 1007.5
20260509212157 92 253 1.7 2.6 0.00 0.00 0.00 59 1007.4
20260509211652 93 263 1.7 1.7 0.00 0.00 0.00 57 1007.2
20260509211149 92 228 0.0 0.9 0.00 0.00 0.00 59 1007.3
20260509210647 90 208 0.9 0.9 0.00 0.00 0.00 59 1007.5
20260509210144 92 227 0.0 0.9 0.00 0.00 0.00 57 1007.7
20260509205639 92 232 0.0 0.9 0.00 0.00 0.00 61 1007.6
20260509205138 93 224 0.0 0.9 0.00 0.00 0.00 56 1007.7
20260509204635 93 207 1.7 1.7 0.00 0.00 0.00 56 1007.7
20260509204131 92 245 1.7 2.6 0.00 0.00 0.00 54 1007.9
20260509203627 92 227 0.0 0.9 0.00 0.00 0.00 55 1007.9
20260509203126 93 243 0.9 0.9 0.00 0.00 0.00 53 1008.1
20260509202626 90 237 0.0 0.9 0.00 0.00 0.00 55 1008.0
20260509202121 89 213 0.9 0.9 0.00 0.00 0.00 59 1008.0
20260509201616 90 237 1.7 1.7 0.00 0.00 0.00 55 1008.1
20260509201114 89 250 0.9 0.9 0.00 0.00 0.00 58 1008.4
20260509200615 89 262 1.7 1.7 0.00 0.00 0.00 59 1008.3
20260509200110 88 221 0.9 0.9 0.00 0.00 0.00 61 1008.3
20260509195606 88 310 1.7 1.7 0.00 0.00 0.00 63 1008.3
20260509195101 88 279 1.7 1.7 0.00 0.00 0.00 64 1008.3
20260509194601 91 243 0.9 1.7 0.00 0.00 0.00 60 1008.4
20260509194059 91 244 0.9 1.7 0.00 0.00 0.00 58 1008.5
20260509193554 90 236 0.9 0.9 0.00 0.00 0.00 61 1008.6
20260509193050 90 221 0.9 1.7 0.00 0.00 0.00 58 1008.5
20260509192547 89 254 0.9 0.9 0.00 0.00 0.00 61 1008.6
20260509192042 88 285 1.7 2.6 0.00 0.00 0.00 62 1008.7
20260509191537 88 291 0.9 0.9 0.00 0.00 0.00 62 1008.5
20260509191033 89 274 0.9 1.7 0.00 0.00 0.00 61 1008.5
20260509190530 89 274 0.9 1.7 0.00 0.00 0.00 62 1008.6
20260509190028 89 241 0.0 0.9 0.00 0.00 0.00 63 1008.6
20260509185525 89 244 0.9 1.7 0.00 0.00 0.00 64 1008.7
20260509185021 88 238 0.9 0.9 0.00 0.00 0.00 65 1008.9
20260509184520 88 316 0.9 1.7 0.00 0.00 0.00 65 1008.8
20260509184016 87 239 0.9 0.9 0.00 0.00 0.00 64 1008.8
20260509183511 88 264 2.6 2.6 0.00 0.00 0.00 64 1008.7
20260509183007 89 223 0.9 0.9 0.00 0.00 0.00 62 1008.9
20260509182504 88 237 0.9 0.9 0.00 0.00 0.00 64 1009.3
20260509182001 88 246 1.7 1.7 0.00 0.00 0.00 64 1009.2
20260509181459 88 241 1.7 1.7 0.00 0.00 0.00 66 1009.5
20260509180956 87 223 0.9 1.7 0.00 0.00 0.00 65 1009.1
20260509180451 86 256 0.9 0.9 0.00 0.00 0.00 70 1009.5
20260509175949 86 253 1.7 1.7 0.00 0.00 0.00 67 1009.6
20260509175445 86 244 1.7 2.6 0.00 0.00 0.00 67 1009.6
20260509174941 85 121 2.6 2.6 0.00 0.00 0.00 70 1009.8
20260509174438 85 197 2.6 3.5 0.00 0.00 0.00 74 1009.7
20260509173933 85 148 5.2 6.1 0.00 0.00 0.00 73 1009.8
20260509173433 85 207 1.7 1.7 0.00 0.00 0.00 73 1010.0
20260509172930 86 210 1.7 2.6 0.00 0.00 0.00 71 1010.0
20260509172427 87 229 0.0 0.9 0.00 0.00 0.00 70 1010.3
20260509171922 87 227 1.7 2.6 0.00 0.00 0.00 71 1010.2
20260509171418 84 225 0.0 0.9 0.00 0.00 0.00 77 1010.3
20260509170915 83 247 1.7 1.7 0.00 0.00 0.00 78 1010.4
20260509170410 84 166 1.7 2.6 0.00 0.00 0.00 80 1010.4
20260509165907 83 221 0.9 0.9 0.00 0.00 0.00 80 1010.5
20260509165400 85 100 3.5 3.5 0.00 0.00 0.00 78 1010.4
20260509164856 84 227 0.0 0.0 0.00 0.00 0.00 79 1010.5
20260509164353 84 190 0.9 1.7 0.00 0.00 0.00 80 1010.6
20260509163849 82 249 0.0 0.0 0.00 0.00 0.00 81 1010.5
20260509163346 82 226 0.0 0.0 0.00 0.00 0.00 85 1010.4
20260509162845 81 224 0.0 0.0 0.00 0.00 0.00 85 1010.5
20260509162344 82 215 0.0 0.0 0.00 0.00 0.00 84 1010.5
20260509161840 81 234 0.0 0.0 0.00 0.00 0.00 84 1010.4
20260509161336 81 225 0.0 0.0 0.00 0.00 0.00 84 1010.4
20260509160832 80 239 0.9 0.9 0.00 0.00 0.00 86 1010.4
20260509160329 80 238 0.0 0.0 0.00 0.00 0.00 87 1010.4
20260509155824 81 239 0.0 0.0 0.00 0.00 0.00 86 1010.3
20260509155320 80 239 0.0 0.0 0.00 0.00 0.00 88 1010.3
20260509154817 80 249 0.9 0.9 0.00 0.00 0.00 88 1010.2
20260509154313 80 248 0.0 0.0 0.00 0.00 0.00 89 1010.1
20260509153810 79 244 0.0 0.9 0.00 0.00 0.00 91 1010.1
20260509153307 78 265 0.9 1.7 0.00 0.00 0.00 91 1010.0
20260509152804 78 238 0.0 0.0 0.00 0.00 0.00 92 1010.2
20260509152259 78 254 0.9 0.9 0.00 0.00 0.00 92 1010.4
20260509151757 78 199 0.0 0.0 0.00 0.00 0.00 92 1010.1
20260509151253 78 256 0.9 0.9 0.00 0.00 0.00 93 1010.1
20260509150752 78 230 0.0 0.0 0.00 0.00 0.00 94 1010.1
20260509150250 77 226 0.9 0.9 0.00 0.00 0.00 94 1010.1
20260509145746 77 265 0.9 1.7 0.00 0.00 0.00 95 1010.0
20260509145246 77 239 0.0 0.0 0.00 0.00 0.00 96 1010.1
20260509144743 77 215 0.0 0.0 0.00 0.00 0.00 96 1010.0
20260509144239 77 250 0.0 0.0 0.00 0.00 0.00 97 1010.1
20260509143736 77 236 0.0 0.0 0.00 0.00 0.00 97 1009.9
20260509143234 77 233 0.0 0.0 0.00 0.00 0.00 98 1009.8
20260509142730 76 231 0.0 0.0 0.00 0.00 0.00 98 1009.7
20260509142226 76 257 0.0 0.0 0.00 0.00 0.00 99 1009.6
20260509141722 76 217 0.0 0.0 0.00 0.00 0.00 99 1009.3
20260509141220 76 233 0.0 0.0 0.00 0.00 0.00 99 1009.0
20260509140716 75 229 0.0 0.0 0.00 0.00 0.00 99 1009.0
20260509140213 75 215 0.0 0.0 0.00 0.00 0.00 99 1009.1
20260509135710 76 236 0.0 0.0 0.00 0.00 0.00 99 1009.0
20260509135208 76 229 0.0 0.0 0.00 0.00 0.00 99 1009.4
20260509134705 76 232 0.0 0.0 0.00 0.00 0.00 99 1009.7
20260509134203 75 233 0.0 0.0 0.00 0.00 0.00 99 1009.9
20260509133659 75 222 0.0 0.0 0.00 0.00 0.00 99 1009.8
20260509133156 76 231 0.0 0.0 0.00 0.00 0.00 99 1010.2
20260509132654 76 210 0.9 0.9 0.00 0.00 0.00 99 1010.0
20260509132153 75 234 0.0 0.0 0.00 0.00 0.00 99 1010.4
20260509131649 75 230 0.0 0.0 0.00 0.00 0.00 99 1010.4
20260509131146 75 211 0.0 0.0 0.00 0.00 0.00 99 1010.5
20260509130641 75 233 0.0 0.0 0.00 0.00 0.00 99 1010.6
20260509130138 75 236 0.0 0.0 0.00 0.00 0.00 99 1010.7
20260509125635 75 232 0.0 0.0 0.00 0.00 0.00 99 1010.5
20260509125131 75 229 0.0 0.0 0.00 0.00 0.00 99 1010.1
20260509124628 75 202 0.9 0.9 0.00 0.00 0.00 99 1009.9
20260509124125 75 221 0.0 0.0 0.00 0.00 0.00 99 1010.3
20260509123623 75 237 0.0 0.0 0.00 0.00 0.00 99 1010.6
20260509123119 75 237 0.0 0.0 0.00 0.00 0.00 99 1010.5
20260509122615 75 236 0.0 0.0 0.00 0.00 0.00 99 1010.3
20260509122113 75 230 0.0 0.0 0.00 0.00 0.00 99 1010.1
20260509121609 74 229 0.0 0.0 0.00 0.00 0.00 99 1010.2
20260509121106 74 225 0.0 0.0 0.00 0.00 0.00 99 1010.5
20260509120604 74 228 0.0 0.0 0.00 0.00 0.00 99 1010.4
20260509115600 74 233 0.0 0.0 0.00 0.00 0.00 99 1010.2
20260509115057 74 231 0.0 0.0 0.00 0.00 0.00 99 1010.2
20260509114555 74 239 0.0 0.0 0.00 0.00 0.00 99 1010.0
20260509114054 74 239 0.0 0.0 0.00 0.00 0.00 99 1009.8
20260509113552 74 237 0.0 0.0 0.00 0.00 0.00 99 1009.9
20260509113049 74 242 0.0 0.0 0.00 0.00 0.00 99 1009.9
20260509112545 74 248 0.0 0.0 0.00 0.00 0.00 99 1009.7
20260509112042 74 230 0.0 0.0 0.00 0.00 0.00 99 1009.7
20260509111540 74 230 0.0 0.0 0.00 0.00 0.00 99 1009.6
20260509111037 74 230 0.0 0.0 0.00 0.00 0.00 99 1009.6
20260509110533 74 229 0.0 0.0 0.00 0.00 0.00 99 1009.7
20260509110031 74 230 0.0 0.0 0.00 0.00 0.00 99 1009.8
20260509105529 74 229 0.0 0.0 0.00 0.00 0.00 99 1009.7
20260509105026 74 230 0.0 0.0 0.00 0.00 0.00 99 1009.5
20260509104523 74 228 0.0 0.0 0.00 0.00 0.00 99 1009.6
20260509104020 74 230 0.0 0.0 0.00 0.00 0.00 99 1009.4
20260509103518 74 229 0.0 0.0 0.00 0.00 0.00 99 1009.6
20260509103016 74 228 0.0 0.0 0.00 0.00 0.00 99 1009.4
20260509102513 74 233 0.0 0.0 0.00 0.00 0.00 99 1009.6
20260509102009 75 237 0.0 0.0 0.00 0.00 0.00 99 1009.4
20260509101506 74 231 0.0 0.0 0.00 0.00 0.00 99 1009.6
20260509101003 75 236 0.0 0.0 0.00 0.00 0.00 99 1009.5
20260509100500 75 239 0.0 0.0 0.00 0.00 0.00 99 1009.5
20260509095956 75 235 0.0 0.0 0.00 0.00 0.00 99 1009.5
20260509095453 75 229 0.0 0.0 0.00 0.00 0.00 99 1009.2
20260509094951 75 228 0.9 1.7 0.00 0.00 0.00 99 1009.2
20260509094447 75 230 0.0 0.0 0.00 0.00 0.00 99 1008.9
20260509093944 74 227 0.0 0.0 0.00 0.00 0.00 99 1009.0
20260509093442 75 230 0.0 0.0 0.00 0.00 0.00 99 1009.0
20260509092940 75 234 0.0 0.0 0.00 0.00 0.00 99 1009.0
20260509092437 75 236 0.0 0.0 0.00 0.00 0.00 99 1008.9
20260509091936 75 236 0.0 0.0 0.00 0.00 0.00 99 1008.8
20260509091432 75 239 0.0 0.0 0.00 0.00 0.00 99 1008.9
20260509090930 75 243 0.0 0.0 0.00 0.00 0.00 99 1009.3
20260509090427 75 234 0.0 0.0 0.00 0.00 0.00 99 1009.4
20260509085925 75 238 0.0 0.0 0.00 0.00 0.00 99 1009.4
20260509085421 75 234 0.0 0.0 0.00 0.00 0.00 99 1009.4
20260509084917 75 234 0.0 0.0 0.00 0.00 0.00 99 1009.4
20260509084414 75 235 0.0 0.0 0.00 0.00 0.00 99 1009.5
20260509083912 75 236 0.0 0.0 0.00 0.00 0.00 99 1009.1
20260509083409 75 234 0.0 0.0 0.00 0.00 0.00 99 1009.2
20260509082905 75 234 0.0 0.0 0.00 0.00 0.00 99 1009.3
20260509082403 75 224 0.0 0.0 0.00 0.00 0.00 99 1009.1
20260509081859 75 221 0.0 0.0 0.00 0.00 0.00 99 1009.2
20260509081357 75 227 0.0 0.0 0.00 0.00 0.00 99 1009.3
20260509080854 75 222 0.0 0.0 0.00 0.00 0.00 99 1009.3
20260509080352 75 238 0.0 0.0 0.00 0.00 0.00 99 1009.1
20260509075850 75 241 0.0 0.0 0.00 0.00 0.00 99 1008.9
20260509075347 75 229 0.0 0.0 0.00 0.00 0.00 99 1008.9
20260509074844 75 154 1.7 2.6 0.00 0.00 0.00 99 1008.8
20260509074342 75 229 0.9 1.7 0.00 0.00 0.00 99 1008.8
20260509073838 75 179 0.0 0.9 0.00 0.00 0.00 99 1008.9
20260509073334 75 197 1.7 1.7 0.00 0.00 0.00 99 1009.0
20260509072831 75 220 0.9 0.9 0.00 0.00 0.00 99 1009.3